Starlink 4286

operational
NORAD ID: 52990 Int'l Des: 2022-076 Owner: SPXS Country: US Constellation: starlink
LEOCIRCULAR

关于 Starlink 4286

正在加载描述...

实时位置

正在加载3D地球...

即将过境

高度历史

Altitude vs Time

uPlot chart will show altitude changes over time

两行轨道根数

1 52990U 22076E 25308.28497035 -.00000166 00000-0 76702-5 0 9999
2 52990 53.2171 307.0838 0001425 87.0674 273.0481 15.08839718183770
Epoch: Nov 4, 2025 • Age: 18 hours

当前状态

高度 545.2 km
速度 7.60 km/s
星下点 52.47°N, 35.56°W
发射日期 Jul 7, 2022
运行时间 3.3 years
类型 internet

技术详情

分类 Payload
质量 297.00 kg
干质量 275.00 kg
总质量 297.00 kg
长度 0.20 m
直径 2.80 m
跨度 9.00 m
形状 Box + pan
制造商 SPXS
平台类型 Starlink
阶段状态 In Orbit
所有者/国家 SPXS/US

大型星座

Loading constellations...